Location: Absher
(46.5583°N, 107.9840°W)
Time: 07:59:15
(UTC+00:00)

STRAND 1 - Pass Details

Date: 03 April 2023
Orbit: 767 x 779 km, 98.4° (Epoch: 02 June)

Event Time Altitude Azimuth Distance (km) Brightness Sun altitude
Rises 12:00:17 0° 134° (SE) 3,244 ? -8.8°
Reaches altitude 10° 12:02:49 10° 123° (ESE) 2,319 ? -8.4°
Maximum altitude 12:07:12 30° 64° (ENE) 1,373 ? -7.6°
Drops below altitude 10° 12:11:36 10° 5° (N) 2,326 ? -6.9°
Sets 12:14:08 0° 355° (N) 3,255 ? -6.5°
